CAPE
47 10 18 8 0 5 148 107 13 19 0 685 759 627 431 284 494 469 400 331 749 535 482 308 396 865 950 1071 928 986 1005 980 998 1137 1198 1033 880 919 952 1030 979 1041 945 997
18 27 26 2 11 71 78 109 8 1 1 388 783 465 299 245 188 172 114 91 200 248 357 283 129 215 899 1096 1021 1243 770 766 1234 1310 1339 1548 1267 949 1148 1091 1331 1328 1065 1038
62 47 45 38 23 39 139 123 194 147 507 781 737 366 352 214 135 81 47 39 28 48 16 48 173 299 571 1097 1124 627 1077 891 710 1055 1385 1233 1105 807 702 875 1076 1104 1103 1159
0 18 36 66 91 95 114 120 92 133 129 469 965 374 167 165 106 47 16 11 3 6 46 59 101 157 197 244 854 1367 955 938 1089 812 528 872 1121 1306 1291 1107 873 912 1129 540
0 29 19 13 47 38 22 12 0 67 128 815 634 302 104 67 56 28 4 2 5 5 3 6 29 112 275 626 718 983 1016 1096 945 1268 1290 1145 1015 973 821 973 825 700 700 375
2 6 24 46 179 106 49 0 0 129 239 671 635 647 240 101 116 52 26 4 28 32 14 29 22 74 321 545 529 588 669 577 359 330 252 119 128 61 230 221 227 366 409 276
28 11 13 227 212 163 0 221 415 103 456 730 638 620 283 193 121 89 112 46 67 100 30 17 22 244 365 292 243 348 546 411 255 340 324 330 243 153 23 4 0 0 1 5
15 3 18 233 143 1 650 605 617 615 1074 667 719 329 238 228 225 164 128 108 59 72 39 17 3 8 41 41 41 138 171 81 47 7 4 15 10 2 3 3 0 1 0 1
42 246 341 298 179 199 351 420 597 1011 1136 1210 793 368 293 244 160 143 88 29 13 27 19 4 4 5 4 4 4 4 4 2 6 5 5 4 2 5 5 3 1 0 1 3
31 12 69 159 177 209 302 471 650 1015 920 695 521 403 235 158 15 16 29 0 0 0 11 4 4 2 5 5 3 2 4 5 5 2 7 4 0 1 2 2 2 2 0 0
109 31 82 361 302 150 479 718 964 1088 967 780 639 404 244 118 41 6 4 0 0 0 2 1 0 0 0 0 2 4 2 3 2 4 2 1 1 3 3 0 0 2 1 0
82 145 406 320 458 581 643 1196 1227 1159 989 703 482 350 164 115 48 26 7 1 0 2 1 1 0 0 0 0 0 0 0 1 1 0 2 0 0 0 0 0 0 0 0 0
52 94 363 578 656 851 1066 1332 1365 1191 754 520 406 271 196 55 0 0 3 3 1 0 0 0 0 0 0 0 0 0 0 0 0 0 0 0 0 0 0 0 0 0 0 0
9 355 516 437 614 1117 1283 1281 1043 786 558 522 470 323 163 72 2 5 0 0 0 0 0 0 0 0 0 0 0 0 0 0 0 0 0 0 0 0 0 0 0 0 0 0
125 319 186 294 595 1156 1304 1220 672 538 511 504 387 241 71 0 0 0 0 0 0 0 0 0 0 0 0 0 0 0 0 0 0 0 0 0 0 0 0 0 0 0 0 0
171 334 250 59 888 1172 1223 825 590 453 434 270 24 0 0 0 0 0 2 6 3 8 2 0 0 0 0 0 0 0 0 0 0 0 0 0 0 0 0 0 0 0 0 0
74 251 297 130 675 1014 999 719 517 364 164 7 2 1 0 0 0 2 10 3 4 0 0 0 0 0 0 0 0 0 0 0 0 0 0 0 0 0 0 0 0 0 0 0
85 127 219 224 649 868 848 600 307 93 37 14 4 2 0 2 7 3 3 0 3 5 5 6 3 0 0 1 0 3 0 0 0 0 0 0 0 0 0 0 0 0 0 0
160 105 116 246 756 919 686 358 96 29 21 31 17 0 0 2 11 2 2 7 11 14 17 19 9 9 43 38 15 17 23 26 19 4 0 0 0 0 0 1 1 1 0 0
116 1 53 150 583 732 541 159 65 21 25 15 8 7 0 0 0 1 1 5 18 17 26 29 5 6 19 44 7 0 15 27 21 16 23 13 5 5 8 0 0 3 11 12
11 7 247 334 459 459 306 68 35 22 43 44 51 102 89 38 2 1 15 12 4 14 26 5 4 7 18 44 28 17 20 15 20 26 32 32 20 10 12 22 25 12 5 8
0 0 197 312 248 222 124 93 22 17 123 149 161 242 303 307 243 144 69 18 52 42 58 5 0 0 0 0 6 9 16 20 17 11 8 13 10 9 8 11 25 36 19 8
20 0 49 128 139 140 116 137 157 78 149 363 557 534 489 272 233 149 98 61 103 82 7 2 2 0 0 0 0 1 1 2 12 25 25 21 5 5 14 18 24 22 9 4
0 0 1 37 21 55 33 71 134 232 295 414 704 752 537 196 6 10 19 21 41 5 0 0 0 0 0 0 0 0 0 0 0 0 0 0 0 1 11 28 10 7 0 0
0 0 0 8 30 45 8 62 40 87 192 370 485 384 97 0 2 5 13 11 0 0 0 0 0 0 0 0 0 0 0 0 0 0 0 0 0 0 1 9 5 0 0 0
8 0 0 0 8 0 0 3 25 5 63 112 41 1 0 0 0 0 0 5 0 1 0 0 0 0 0 0 0 0 0 0 0 0 0 3 9 7 0 0 0 0 0 0
70 0 0 17 11 0 0 0 0 0 0 1 0 0 0 0 0 0 0 23 4 0 0 0 0 0 0 0 0 0 0 0 0 0 2 1 0 0 0 0 6 2 0 0
CIN
-13 -37 -36 -87 -0 -87 -5 -6 -9 -53 -3 -1 -29 -101 -136 -160 -26 -26 -60 -83 -19 -2 -37 -91 -48 -2 -2 -2 -1 -3 -3 -1 -1 -1 -0 -1 -2 -1 -1 -0 -2 -1 -1 -1
-4 -5 -6 -5 -18 -6 -4 -4 -114 -35 -0 -6 -102 -173 -188 -208 -186 -146 -185 -196 -186 -165 -93 -82 -94 -53 -1 -5 -17 -3 -47 -43 -3 -1 -1 -7 -22 -23 -9 -2 -1 -2 -7 -0
-6 -5 -13 -5 -8 -7 -8 -11 -12 -5 -10 -2 -34 -179 -147 -235 -293 -299 -345 -349 -318 -256 -155 -40 -11 -28 -19 -6 -11 -45 -21 -23 -38 -5 -2 -32 -46 -53 -49 -14 -3 -3 -13 -6
-0 -5 -6 -3 -5 -32 -7 -39 -25 -29 -8 -4 -42 -159 -280 -259 -275 -363 -431 -455 -0 -97 -230 -111 -25 -22 -48 -109 -32 -0 -6 -4 -13 -34 -67 -22 -5 -1 -2 -7 -18 -3 -0 -35
-0 -5 -4 -4 -3 -6 -6 -4 -0 -3 -4 -8 -58 -170 -257 -303 -294 -398 -128 -146 -285 -377 -340 -95 -205 -114 -88 -58 -12 -2 -1 -0 -0 -0 -0 -0 -0 -0 -1 -2 -0 -0 -0 -7
-3 -2 -4 -3 -13 -32 -29 -0 -0 -5 -2 -1 -2 -3 -114 -246 -213 -267 -347 -26 -316 -342 -395 -361 -358 -194 -46 -6 -12 -1 -2 -1 -8 -5 -24 -85 -61 -83 -8 -21 -3 -0 -0 -0
-5 -3 -4 -12 -3 -29 -0 -9 -21 -16 -2 -0 -4 -19 -127 -142 -193 -221 -210 -282 -284 -234 -356 -451 -457 -83 -18 -30 -56 -31 -6 -3 -5 -5 -2 -0 -13 -52 -118 -59 -0 -0 -0 -0
-4 -3 -3 -25 -24 -4 -13 -9 -24 -3 -7 -17 -53 -114 -151 -136 -121 -148 -196 -232 -276 -271 -320 -378 -0 -441 -271 -280 -315 -220 -136 -159 -154 -52 -19 -172 -142 -6 -0 -0 -0 -0 -0 -0
-11 -6 -17 -31 -28 -16 -35 -29 -15 -2 -6 -5 -40 -76 -99 -122 -152 -156 -198 -316 -321 -292 -304 -0 -0 -0 -0 -0 -0 -0 -0 -0 -0 -0 -0 -0 -0 -0 -0 -0 -0 -0 -0 -0
-48 -80 -5 -4 -10 -35 -26 -19 -1 -1 -1 -28 -41 -72 -125 -133 -222 -218 -200 -0 -0 -0 -207 -0 -0 -0 -0 -0 -0 -0 -0 -0 -0 -0 -0 -0 -0 -0 -0 -0 -0 -0 -0 -0
-10 -64 -5 -3 -5 -4 -3 -14 -2 -2 -2 -1 -11 -74 -120 -166 -174 -0 -0 -0 -0 -0 -0 -0 -0 -0 -0 -0 -0 -0 -0 -0 -0 -0 -0 -0 -0 -0 -0 -0 -0 -0 -0 -0
-6 -3 -2 -1 -4 -6 -3 -1 -1 -1 -1 -15 -37 -77 -146 -175 -199 -166 -58 -0 -0 -0 -1 -1 -0 -0 -0 -0 -0 -0 -0 -0 -0 -0 -0 -0 -0 -0 -0 -0 -0 -0 -0 -0
-17 -6 -2 -3 -3 -4 -1 -0 -1 -0 -13 -46 -54 -77 -87 -185 -6 -0 -0 -1 -1 -0 -0 -0 -0 -0 -0 -0 -0 -0 -0 -0 -0 -0 -0 -0 -0 -0 -0 -0 -0 -0 -0 -0
-25 -3 -3 -5 -2 -1 -1 -2 -10 -1 -20 -18 -25 -49 -112 -161 -148 -58 -0 -0 -0 -0 -0 -0 -0 -0 -0 -0 -0 -0 -0 -0 -0 -0 -0 -0 -0 -0 -0 -0 -0 -0 -0 -0
-4 -2 -4 -2 -2 -2 -1 -4 -25 -13 -16 -14 -23 -38 -125 -0 -0 -0 -0 -0 -0 -0 -0 -0 -0 -0 -0 -0 -0 -0 -0 -0 -0 -0 -0 -0 -0 -0 -0 -0 -0 -0 -0 -0
-6 -4 -4 -10 -2 -1 -1 -25 -16 -16 -18 -44 -113 -0 -0 -0 -0 -0 -1 -2 -1 -1 -1 -0 -0 -0 -0 -0 -0 -0 -0 -0 -0 -0 -0 -0 -0 -0 -0 -0 -0 -0 -0 -0
-13 -1 -2 -3 -2 -2 -2 -1 -2 -18 -58 -123 -138 -130 -0 -0 -0 -1 -2 -2 -1 -0 -0 -0 -0 -0 -0 -0 -0 -0 -0 -0 -0 -0 -0 -0 -0 -0 -0 -0 -0 -0 -0 -0
-4 -4 -6 -3 -4 -1 -2 -1 -2 -26 -80 -124 -135 -146 -0 -1 -26 -0 -1 -0 -1 -1 -1 -1 -1 -0 -0 -0 -0 -1 -0 -0 -0 -0 -0 -0 -0 -0 -0 -0 -0 -0 -0 -0
-21 -12 -19 -8 -2 -1 -1 -2 -7 -38 -68 -67 -71 -0 -0 -1 -1 -1 -1 -1 -1 -1 -1 -2 -7 -8 -2 -1 -4 -1 -2 -3 -4 -2 -0 -0 -0 -0 -0 -2 -1 -1 -0 -1
-68 -10 -45 -12 -2 -2 -2 -7 -25 -55 -61 -93 -107 -73 -14 -0 -0 -1 -0 -0 -1 -1 -2 -2 -5 -1 -2 -4 -9 -0 -2 -3 -2 -2 -3 -2 -2 -2 -3 -0 -0 -3 -1 -3
-124 -42 -13 -2 -1 -2 -4 -26 -53 -79 -51 -47 -29 -12 -17 -36 -6 -0 -5 -10 -1 -2 -3 -14 -1 -1 -3 -2 -7 -2 -1 -2 -8 -3 -2 -2 -4 -1 -3 -2 -3 -4 -12 -18
-0 -0 -39 -13 -15 -14 -31 -37 -67 -59 -24 -14 -13 -7 -4 -6 -11 -25 -55 -43 -31 -97 -47 -1 -0 -0 -0 -0 -1 -3 -3 -2 -7 -17 -18 -18 -19 -5 -17 -19 -4 -9 -18 -12
-136 -0 -113 -58 -45 -37 -42 -40 -43 -56 -35 -1 -1 -1 -1 -14 -23 -50 -75 -91 -63 -48 -2 -3 -1 -0 -0 -0 -0 -1 -0 -2 -4 -7 -6 -7 -22 -15 -5 -2 -4 -1 -2 -2
-0 -0 -8 -111 -119 -91 -112 -72 -35 -10 -2 -2 -2 -2 -1 -23 -2 -2 -5 -1 -32 -12 -0 -0 -0 -0 -0 -0 -0 -0 -0 -0 -0 -0 -0 -0 -0 -0 -1 -3 -2 -1 -0 -0
-0 -0 -0 -117 -98 -84 -137 -94 -90 -52 -23 -2 -2 -2 -43 -0 -2 -3 -3 -2 -0 -0 -0 -0 -0 -0 -0 -0 -0 -0 -0 -0 -0 -0 -0 -0 -0 -0 -1 -2 -2 -0 -0 -0
-66 -0 -0 -0 -87 -0 -0 -54 -88 -50 -49 -30 -53 -1 -0 -0 -0 -0 -1 -2 -0 -10 -0 -0 -0 -0 -0 -0 -0 -0 -0 -0 -0 -0 -0 -1 -1 -1 -0 -0 -0 -0 -0 -0
-56 -0 -0 -59 -83 -0 -0 -0 -0 -0 -0 -0 -0 -0 -0 -0 -0 -0 -1 -5 -4 -0 -0 -0 -0 -0 -0 -0 -0 -0 -0 -0 -0 -0 -2 -0 -0 -0 -0 -0 -0 -1 -0 -0
Wind_Speed
19 25 11 23 27 33 24 30 25 20 28 13 14 16 15 14 16 13 15 16 20 20 19 20 27 26 21 21 18 19 18 15 15 14 15 17 17 17 18 19 22 23 21 22
30 31 31 32 28 34 26 27 23 13 21 12 11 15 17 16 16 17 16 15 15 17 22 25 27 27 24 21 23 19 22 21 20 16 16 17 20 21 22 23 22 22 24 25
29 21 28 31 33 31 32 27 29 26 22 16 14 14 16 17 16 16 16 16 17 16 18 16 17 20 23 20 18 23 23 23 24 23 19 21 19 20 21 23 23 23 22 21
30 29 24 23 23 26 26 31 26 30 26 11 15 15 15 16 14 15 17 17 18 17 15 13 16 18 19 21 21 20 23 24 21 24 26 26 25 24 25 28 25 24 23 26
23 25 29 29 24 25 28 33 34 34 22 18 15 13 16 15 15 14 16 17 18 17 17 19 19 18 17 20 18 22 22 21 24 27 25 25 24 26 28 31 29 29 28 28
18 21 22 24 18 20 24 34 35 31 27 22 17 26 19 14 14 14 14 14 16 15 15 17 19 21 16 16 12 15 16 17 17 18 21 24 25 27 29 30 30 30 28 28
12 15 23 17 17 20 28 26 28 27 16 15 18 17 9 10 12 13 13 14 14 14 14 15 14 12 8 8 11 12 14 14 15 15 16 19 20 21 21 20 20 20 20 20
14 19 23 18 18 25 21 25 30 28 16 13 10 12 12 12 11 12 12 12 14 14 14 14 14 12 11 12 14 14 13 14 15 15 16 16 17 17 16 15 16 16 17 19
23 20 15 18 21 21 23 26 27 26 22 19 15 16 15 15 14 14 14 12 14 14 14 15 15 14 14 15 15 15 14 14 14 14 14 15 16 15 16 15 16 16 15 15
20 20 25 20 20 22 22 23 23 19 17 14 15 13 13 14 15 15 16 14 14 14 14 14 15 15 14 15 15 15 15 15 14 15 14 15 15 16 16 16 16 16 15 15
13 19 24 20 20 21 16 19 21 15 15 14 13 14 15 15 15 15 15 14 13 14 14 15 15 15 15 15 14 14 14 14 13 14 14 15 17 18 17 18 17 15 16 16
8 19 24 19 12 13 15 16 15 14 14 14 14 13 14 14 14 14 13 12 12 14 14 14 14 14 14 14 13 12 12 13 13 14 15 15 15 15 17 17 16 15 16 16
8 15 16 16 19 14 14 13 12 13 12 11 12 12 12 12 12 12 12 11 12 11 11 12 13 13 13 13 12 13 12 12 12 13 14 15 15 14 14 15 16 16 16 16
3 6 10 13 15 12 10 10 11 11 11 9 8 9 9 7 8 10 11 10 10 9 10 10 12 12 12 12 12 13 13 13 13 12 12 12 12 13 14 14 15 15 16 16
4 3 8 16 8 4 6 7 6 8 9 7 7 8 7 6 6 8 8 8 8 9 10 10 10 11 11 11 11 11 12 12 12 13 14 14 15 15 15 14 15 15 15 16
8 5 9 29 9 4 3 2 6 9 8 5 4 5 6 4 4 4 7 9 9 10 10 10 10 10 11 11 11 12 13 13 14 13 13 14 14 15 15 15 14 14 15 16
9 9 12 22 13 8 14 2 7 3 5 4 4 7 4 2 2 7 6 7 8 7 8 9 9 9 10 11 12 11 11 12 15 13 14 14 14 14 15 14 15 15 15 17
11 13 15 22 23 16 18 6 25 15 13 16 17 10 2 3 2 3 4 6 8 9 10 10 10 10 12 13 15 13 13 12 13 14 14 14 14 13 13 14 14 14 14 16
14 14 16 22 21 19 27 29 22 20 14 12 10 19 27 27 25 7 3 3 5 8 9 11 9 13 13 12 15 13 13 13 11 13 14 16 15 15 14 14 14 15 17 17
18 16 18 21 23 24 22 19 17 17 15 14 5 4 15 15 15 7 5 3 5 8 9 6 6 8 8 11 8 16 21 10 11 15 15 13 12 12 13 16 19 18 18 18
17 18 19 22 23 22 19 19 19 17 19 19 18 18 14 8 7 8 9 14 9 5 12 11 11 14 9 8 7 7 10 12 14 17 13 13 12 15 16 17 16 16 17 20
14 16 20 20 21 22 22 21 22 20 21 23 23 22 20 18 17 16 16 17 8 2 5 8 10 11 16 16 16 15 14 13 12 13 16 15 17 16 15 17 20 19 20 20
10 11 15 17 20 21 20 21 18 18 17 16 17 16 16 20 17 17 14 12 6 3 3 2 7 9 12 12 13 18 20 20 19 11 9 7 9 11 13 13 15 16 17 19
4 6 8 11 12 13 17 21 24 19 19 17 21 20 19 13 12 7 4 3 6 4 3 4 4 8 10 12 16 18 20 20 18 16 16 18 16 15 14 10 14 15 16 17
2 2 6 7 7 6 8 5 5 1 4 7 4 1 2 4 2 1 1 3 3 2 1 2 1 4 7 13 17 16 15 14 14 13 12 12 10 10 11 11 13 14 15 17
5 1 3 6 5 2 1 2 3 3 2 3 4 4 3 2 2 3 1 0 2 4 3 2 2 3 6 9 11 12 13 13 11 10 10 9 11 10 10 11 11 13 15 17
8 8 6 4 4 3 3 2 2 3 3 5 5 6 5 4 4 4 5 3 3 2 5 2 3 4 8 11 11 11 11 10 11 9 8 9 8 8 8 10 11 13 15 16
Wind_Direction
303 268 296 278 270 264 278 263 260 278 276 266 283 277 288 282 270 273 264 272 257 265 266 264 255 256 255 259 263 265 267 271 276 281 285 289 293 298 300 302 300 300 306 305
271 262 268 275 282 268 282 279 277 275 255 141 295 282 275 279 276 277 273 279 284 288 280 272 256 254 258 261 262 268 266 272 277 280 284 288 290 294 298 300 301 302 300 301
270 295 280 273 274 276 274 274 269 279 284 302 295 289 288 285 282 280 284 287 296 302 298 285 269 257 257 264 273 268 273 275 273 276 281 284 289 292 297 296 298 296 299 301
273 277 285 292 300 285 281 271 276 283 285 334 306 299 296 297 294 289 286 285 286 283 285 284 276 269 268 267 275 282 278 278 275 276 279 281 289 291 295 294 296 299 296 293
297 292 283 285 298 287 277 274 274 275 301 300 309 306 290 300 299 300 298 298 298 299 299 282 280 283 283 279 281 277 287 286 279 277 285 286 290 291 297 293 298 297 296 296
306 302 303 303 313 309 301 280 276 274 283 287 286 271 280 295 297 302 306 310 307 323 315 295 271 265 282 283 305 302 297 294 303 298 291 293 298 300 300 299 300 297 301 300
311 307 301 312 319 316 289 289 284 265 276 279 278 293 299 302 300 303 308 311 322 324 323 321 328 328 335 334 312 330 327 310 309 315 313 315 313 313 316 321 324 320 318 323
313 307 296 318 317 297 303 303 289 297 320 292 288 291 292 294 299 299 308 312 314 322 328 328 329 333 336 328 320 328 347 327 321 325 323 346 344 339 337 334 340 341 340 334
307 326 328 321 311 311 306 299 293 293 295 296 287 283 281 282 286 290 296 315 315 316 318 324 331 330 317 317 316 320 323 330 338 332 340 357 359 356 2 3 356 347 352 353
312 304 304 307 314 309 307 299 295 295 294 291 281 283 286 287 286 286 287 296 312 312 312 318 326 336 333 325 318 318 319 322 321 321 327 331 347 345 353 354 355 358 1 359
318 309 300 306 306 305 311 303 291 293 289 288 285 281 284 285 290 290 292 286 305 303 304 308 316 322 324 325 320 325 327 326 329 328 331 333 330 326 334 337 339 342 346 347
290 320 314 306 321 319 310 302 292 285 286 288 286 286 284 288 287 289 292 298 292 295 298 306 312 313 318 325 326 334 340 334 334 330 331 332 339 342 344 344 347 351 349 350
311 316 316 307 311 313 306 302 296 287 287 291 289 288 293 289 289 288 292 295 291 299 313 312 309 313 325 332 337 331 332 332 334 332 336 330 332 340 343 353 358 358 359 358
353 344 330 313 299 301 302 300 299 293 293 300 303 293 294 314 300 289 284 293 300 313 318 321 313 316 320 330 334 335 335 327 333 335 340 350 349 349 348 349 349 351 351 352
139 107 176 196 126 312 303 305 311 296 298 316 313 293 296 301 304 297 290 292 308 314 318 324 322 325 329 332 337 343 345 345 344 341 335 338 339 339 343 345 343 344 348 347
149 136 163 238 319 299 296 355 298 288 298 343 347 317 295 315 312 309 292 294 302 305 311 316 322 328 333 338 342 345 340 336 334 342 343 340 340 340 342 345 350 352 353 354
135 118 149 184 146 135 150 309 296 332 68 42 321 289 307 16 310 277 292 311 322 329 327 325 328 342 344 344 332 352 358 348 330 340 344 344 343 345 345 351 352 355 357 355
129 129 146 170 164 139 146 116 223 129 121 127 129 154 316 80 70 297 314 313 311 316 322 328 331 329 320 320 310 332 330 346 341 335 339 340 343 349 354 353 354 354 355 356
144 140 141 159 152 142 166 191 152 142 118 107 98 131 197 204 210 279 329 5 356 332 325 315 327 311 316 322 316 326 329 333 341 337 332 331 332 333 338 345 346 346 344 346
148 142 146 154 153 150 147 143 133 131 126 120 84 62 122 131 135 108 97 73 354 341 351 11 9 345 352 334 349 314 301 351 347 331 332 338 338 337 334 331 328 332 336 338
134 145 140 145 149 148 140 142 142 137 142 143 144 145 133 108 106 113 123 152 131 356 317 337 339 330 343 344 348 343 340 334 331 327 335 336 334 328 329 332 335 337 336 336
126 135 144 142 147 149 152 147 154 145 151 159 167 167 163 160 162 165 169 176 333 87 356 334 336 338 325 325 319 321 322 327 336 334 332 332 326 333 333 330 330 332 335 336
124 126 141 144 149 155 153 159 152 154 153 152 158 161 164 184 169 173 171 168 158 109 49 72 16 5 358 350 334 320 314 314 319 334 334 337 338 332 334 338 340 338 338 337
99 125 138 142 143 144 156 168 179 167 168 164 176 178 178 166 170 159 151 148 154 133 114 19 9 351 354 342 331 328 325 320 322 322 321 321 329 333 338 352 346 343 341 346
334 107 136 146 151 150 148 140 148 166 153 162 162 165 164 164 331 12 76 43 121 145 149 339 29 4 354 328 325 335 342 343 338 333 335 338 338 339 343 350 347 348 352 352
294 282 152 155 164 195 194 186 187 189 240 268 279 293 292 284 297 309 302 85 94 170 165 329 327 335 344 341 345 347 352 352 349 344 344 352 349 354 358 355 355 356 355 355
282 286 285 279 264 240 243 245 209 229 252 286 289 292 288 281 282 267 274 262 223 240 222 284 302 302 330 331 335 334 342 355 354 1 3 357 2 9 4 354 355 354 354 356